Regional Weather Roundup
Issued by NWS

Home | Current Version | Previous Version | Text Only | Print | Product List | Glossary On
Versions: 1 2 3 4 5 6 7 8 9 10 11 12 13 14 15 16 17 18 19 20 21 22 23 24 25 26 27 28 29 30 31 32 33 34 35 36 37 38 39 40 41 42 43 44 45 46 47 48 49 50
000
ASUS43 KMPX 090710
RWRMN
WEATHER ROUNDUP FOR MINNESOTA
NATIONAL WEATHER SERVICE TWIN CITIES/CHANHASSEN MN
100 AM CST FRI DEC 09 2016


NOTE: "FAIR" INDICATES FEW OR NO CLOUDS BELOW 12,000 FEET WITH NO
SIGNIFICANT WEATHER AND/OR OBSTRUCTIONS TO VISIBILITY. N/A MEANS
CURRENT SKY AND/OR WEATHER CONDITIONS ARE NOT AVAILABLE.

MNZ060>063-068>070-090800-
   Twin Cities Metro

CITY           SKY/WX    TMP DP  RH WIND       PRES   REMARKS
TWIN CITIES    CLOUDY    17  10  74 NW13      30.53R WCI   4
ST PAUL        CLOUDY    18  12  77 NW10      30.54R WCI   6
CRYSTAL        CLOUDY    16   8  71 NW8       30.52R WCI   5
BLAINE         MOCLDY    18  12  79 W9        30.52R WCI   6
LAKEVILLE      FLURRIES  12  10  92 W9        30.52S WCI   0
EDEN PRAIRIE   CLOUDY    14   9  80 W7        30.53R WCI   4
SOUTH ST PAUL  CLOUDY    19  12  74 NW8       30.52S WCI   9
LAKE ELMO      FAIR      18  12  79 W5        30.52R WCI  11
$$
MNZ001>005-007-008-013>017-022>024-027-028-090800-
   Northwest Minnesota

CITY           SKY/WX    TMP DP  RH WIND       PRES   REMARKS
BEMIDJI        FLURRIES   6   3  87 NW8       30.49R WCI  -7
HALLOCK        CLOUDY     9   3  78 CALM      30.57R
ROSEAU         CLOUDY     3   0  85 W5        30.53S WCI  -6
WARROAD        CLOUDY     5   0  78 NW10      30.51F WCI -10
THIEF RVR FALL FLURRIES   5   2  87 NW6       30.55S WCI  -6
CROOKSTON      CLOUDY     9   5  85 N5        30.58S WCI   0
FOSSTON        CLOUDY     3   0  85 NW5       30.53S WCI  -6
DETROIT LAKES  FLURRIES   9   5  85 NW9       30.53S WCI  -5
MOORHEAD       MIX PCPN   7   1  78 W8        30.59S WCI  -6
PARK RAPIDS    CLEAR      2  -3  80 NW7       30.49R WCI -11
$$
MNZ006-009>011-018-025>026-090800-
   North Central Minnesota

CITY           SKY/WX    TMP DP  RH WIND       PRES   REMARKS
BAUDETTE       CLOUDY     4  -1  80 W12       30.49R WCI -12
FLAG ISLAND    CLOUDY     7   1  78 W14       30.49S FOG     WCI -10
INTL FALLS     CLOUDY    10   4  76 NW8       30.45R WCI  -2
WASKISH        CLOUDY     7   3  85 W7        30.50R WCI  -5
BIG FORK       FLURRIES  12   9  85 NW3       30.45R
LONGVILLE      LGT SNOW  12   9  85 NW5       30.47S WCI   4
GRAND RAPIDS   FLURRIES  13   9  84 NW8       30.46R WCI   2
CRANE LAKE     LGT SNOW  10   9  92 W3        30.45R
ORR            CLOUDY     9   3  78 W9        30.41R WCI  -5
COOK           CLOUDY    10   7  85 W9        30.43R WCI  -2
$$
MNZ012-019>021-037-090800-
   Northeast Minnesota

CITY           SKY/WX    TMP DP  RH WIND       PRES   REMARKS
DULUTH         FLURRIES  11   5  77 NW10      30.41R WCI  -3
ELY            FLURRIES   9   7  92 CALM      30.40R
HIBBING        CLOUDY    10   5  80 N6        30.43S WCI   0
EVELETH        CLOUDY    12   6  76 NW8       30.44R WCI   1
DULUTH HARBOR  CLEAR     18  10  73 W14       30.48S WCI   4
TWO HARBORS    MOCLDY    18  10  73 NW5       30.40R WCI  11
SILVER BAY     PTCLDY    12   9  85 CALM      30.39S
GRAND MARAIS     N/A     18   8  65 VRB3      30.42R
G MARAIS ARPRT CLOUDY    10   1  67 NW8       30.31S WCI  -1
$$
MNZ029>031-032-039>041-046>048-054>057-064-090800-
   West Central Minnesota

CITY           SKY/WX    TMP DP  RH WIND       PRES   REMARKS
FERGUS FALLS   FLURRIES   3   0  85 NW7       30.63R WCI  -9
WHEATON        FLURRIES   3  -2  78 W8        30.63R WCI -10
MORRIS         CLEAR      1  -2  85 NW7       30.57S FOG     WCI -11
ALEXANDRIA     PTCLDY     2  -1  88 NW10      30.53R WCI -14
ELBOW LAKE     FLURRIES   4   1  86 NW10      30.57S WCI -11
WADENA         FLURRIES   9   5  85 W8        30.51R WCI  -4
GLENWOOD       CLEAR      1   0  92 W9        30.53S WCI -14
APPLETON       CLEAR      3  -2  78 NW6       30.61R WCI  -8
BENSON         CLEAR      1  -2  85 N9        30.58S WCI -14
ORTONVILLE     CLEAR      3  -2  78 CALM      30.59S
MADISON        CLEAR      5   0  78 NW6       30.60F WCI  -6
WILLMAR        CLOUDY     7   3  85 NW13      30.57S WCI  -9
$$
MNZ033>034-036-042>043-049>051-058-059-090800-
   Central Minnesota

CITY           SKY/WX    TMP DP  RH WIND       PRES   REMARKS
ST CLOUD       MOCLDY    11   8  88 NW7       30.52S WCI   0
PAYNESVILLE    CLOUDY     9   6  87 W12       30.54R WCI  -5
AITKIN         MIX PCPN  16  10  79 CALM      30.46R
PINE RIVER     FLURRIES  10   9  92 W5        30.50S WCI   2
BRAINERD       CLOUDY    13   9  84 NW8       30.49S WCI   2
STAPLES        CLOUDY     9   7  92 W9        30.50S WCI  -5
LONG PRAIRIE   CLOUDY     9   5  85 SW8       30.52R WCI  -4
LITTLE FALLS   CLOUDY    14   9  79 NW8       30.51S WCI   3
LITCHFIELD     CLOUDY    12   9  85 NW12      30.54S WCI  -2
BUFFALO        PTCLDY    13   9  85 W6        30.54S WCI   4
MAPLE LAKE     FLURRIES  13  11  90 W10       30.54R WCI   0
HUTCHINSON     CLOUDY    13   9  85 W12       30.55S WCI  -1
$$
MNZ037-044-045-052-053-090800-
   East Central Minnesota

CITY           SKY/WX    TMP DP  RH WIND       PRES   REMARKS
PRINCETON      CLEAR     12   9  85 W6        30.51R WCI   3
MORA           CLEAR     12   9  85 W3        30.51R
CAMBRIDGE      PTCLDY    14   7  73 W5        30.49S WCI   6
RUSH CITY      CLEAR     12   9  85 CALM      30.50R
MOOSE LAKE     CLOUDY    16  10  79 CALM      30.45S
HINCKLEY       FAIR      14  10  85 NW5       30.48S WCI   6
CLOQUET        CLEAR     10   5  79 NW6       30.43S WCI   1
MCGREGOR       CLOUDY    16  12  86 W3        30.46S
$$
MNZ071>073-080-081-089-090-097-098-090800-
   Southwest Minnesota

CITY           SKY/WX    TMP DP  RH WIND       PRES   REMARKS
MONTEVIDEO     CLEAR      3   0  85 N9        30.61S WCI -11
GRANITE FALLS  CLEAR      6   2  83 W9        30.61S WCI  -8
CANBY          PTCLDY     4   0  83 CALM      30.60F
MARSHALL       CLEAR      4  -1  80 NW9       30.59S WCI -10
REDWOOD FALLS  CLEAR      6   1  80 NW10      30.58S WCI  -9
OLIVIA         CLEAR     10   5  79 NW12      30.57R WCI  -4
PIPESTONE      CLEAR      3   0  85 NW5       30.54S WCI  -6
WINDOM         FLURRIES   7   3  85 CALM      30.55S
WORTHINGTON    CLEAR      5   2  87 W7        30.56R WCI  -7
JACKSON        CLEAR      7   3  85 NW8       30.55S WCI  -6
TRACY          CLEAR      7   3  84 NW9       30.57S WCI  -7
SLAYTON        PTCLDY     4   1  87 W9        30.55S WCI -10
$$
MNZ065>067-074>077-082>085-091>093-090800-
   South Central Minnesota

CITY           SKY/WX    TMP DP  RH WIND       PRES   REMARKS
MANKATO        FLURRIES  12   8  84 NW9       30.56  WCI   0
NEW ULM        FLURRIES  10   5  79 NW10      30.57S WCI  -3
ST JAMES       FLURRIES  10   7  85 W13       30.58S WCI  -5
FAIRMONT       FLURRIES  11   6  81 NW14      30.56S WCI  -5
GLENCOE        CLOUDY    13  11  90 W9        30.55R WCI   1
FARIBAULT      FLURRIES  14  10  85 W10       30.52S WCI   1
OWATONNA       FLURRIES  14   9  79 NW12      30.52R WCI   0
WASECA         FLURRIES  14  10  85 W13       30.54R WCI   0
ALBERT LEA     FLURRIES  18  12  79 W10G16    30.51S WCI   6
$$
MNZ078>079-086>088-094>096-090800-
   Southeast Minnesota

CITY           SKY/WX    TMP DP  RH WIND       PRES   REMARKS
ROCHESTER      FLURRIES  15  11  83 NW15      30.47S WCI   0
RED WING       FLURRIES  19  12  73 NW7       30.50S WCI  10
STANTON        FLURRIES  17  13  82 NW10      30.50F WCI   5
DODGE CENTER   FLURRIES  12  10  92 NW12      30.48S WCI  -2
WINONA         FLURRIES  21  18  86 NW8       30.50S WCI  12
AUSTIN         FLURRIES  14  10  85 NW9       30.50S WCI   2
PRESTON        FLURRIES  14  10  85 NW12      30.47S WCI   0
$$
ABBREVIATIONS USED IN REMARKS
   TC - TEMPERATURES IN CELSIUS
  WCI - WIND CHILL INDEX
   HX - HEAT INDEX
  VSB - VISIBILITY
$$




USA.gov is the U.S. government's official web portal to all federal, state and local government web resources and services.